Regional Weather Roundup
Issued by NWS Huntsville, AL

Home | Current Version | Previous Version | Text Only | Print | Product List | Glossary On
Versions: 1 2 3 4 5 6 7 8 9 10 11 12 13 14 15 16 17 18 19 20 21 22 23 24 25 26 27 28 29 30 31 32 33 34 35 36 37 38 39 40 41 42 43 44 45 46 47 48 49 50
000
ASUS44 KHUN 230324
RWRHUN

WEATHER ROUNDUP FOR THE TENNESSEE VALLEY
NATIONAL WEATHER SERVICE HUNTSVILLE AL
1000 PM CDT FRI AUG 22 2014

ALZ001>004-230400-
NORTHWEST ALABAMA

CITY           SKY/WX    TMP DP  RH WIND       PRES   REMARKS
COURTLAND HCN    N/A     81 N/A N/A CALM        N/A
RUSSELLVILLE     N/A     75 N/A N/A MISG        N/A
SHOALS AIRPORT CLEAR     78  73  84 CALM      30.04R
SHOALS TVA RES   N/A     79 N/A N/A MISG        N/A
$$

ALZ005>007-016-230400-
NORTH CENTRAL ALABAMA

CITY           SKY/WX    TMP DP  RH WIND       PRES   REMARKS
CULLMAN AG STN   N/A     73 N/A N/A CALM        N/A
DECATUR AP     CLEAR     79  73  82 CALM      30.04R
HUNTSVILLE AP  CLEAR     80  72  76 CALM      30.03R
MERIDIANVILLE  CLEAR     73  68  83 CALM      30.05R
VINEMONT AP    FAIR      73  72  96 CALM      30.08S
$$

ALZ008>010-230400-
NORTHEAST ALABAMA

CITY           SKY/WX    TMP DP  RH WIND       PRES   REMARKS
ALBERTVILLE    CLEAR     75  75 100 CALM      30.06R
CROSSVILLE       N/A     72 N/A N/A CALM        N/A
FORT PAYNE     CLEAR     72  70  94 N3        30.05R
SCOTTSBORO AP  CLEAR     75  73  94 CALM      30.05R
SCOTTSBORO HCN   N/A     75 N/A N/A MISG        N/A
VALLEY HEAD      N/A     73 N/A N/A MISG        N/A
$$

TNZ076-096-097-230400-
SOUTHEASTERN MIDDLE TENNESSEE

CITY           SKY/WX    TMP DP  RH WIND       PRES   REMARKS
FAYETTEVILLE   CLEAR     75  68  78 CALM      30.06S
TULLAHOMA      CLEAR     75  72  88 CALM      30.08R
WINCHESTER     CLEAR     75  73  94 CALM      30.07R
$$

...SURROUNDING SITES...

CITY           SKY/WX    TMP DP  RH WIND       PRES   REMARKS
ATLANTA        PTCLDY    83  69  62 NW6       30.04R
ANNISTON       CLEAR     79  75  87 CALM      30.04R
BIRMINGHAM     CLEAR     81  71  71 CALM      30.05R
CHATTANOOGA    PTCLDY    81  72  74 CALM      30.04R
CORINTH        FAIR      77  73  88 CALM      30.02R
DALTON         CLEAR     73  73 100 CALM      30.04S
GADSDEN        CLEAR     77  70  78 CALM      30.02S
GOLDEN TRNGL   CLEAR     81  70  69 NW3       30.03R
HALEYVILLE     FAIR      76  74  93 CALM      30.08R
JACKSON TN     CLEAR     78  75  90 S6        30.01R
LEWISBURG      FAIR      77  72  84 CALM      30.04R
MEMPHIS        PTCLDY    85  73  67 SW6       30.00R HX  91
MURFREESBORO   FAIR      81  72  74 CALM      30.03R
NASHVILLE      CLEAR     80  73  79 CALM      30.03R
OXFORD MS      FAIR      77  72  83 CALM      30.04S
ROME           CLEAR     77  73  87 CALM      30.03R
SAVANNAH       CLEAR     75  75 100 CALM      30.03S
TUPELO         CLEAR     82  74  76 CALM      30.02R
TUSCALOOSA     CLEAR     80  74  81 CALM      30.01R
$$

...GULF COAST WEATHER...

CITY           SKY/WX    TMP DP  RH WIND       PRES   REMARKS
GULFPORT       CLEAR     83  76  79 CALM      30.02R HX  91
PASCAGOULA     CLEAR     77  75  93 CALM      30.02R FOG
MOBILE         PTCLDY    81  76  84 W5        30.04R
GULF SHORES    CLEAR     81  76  84 W3        30.02S
PENSACOLA      CLEAR     82  76  81 W3        30.01R
DESTIN         PTCLDY    87  79  76 MISG      30.01R HX 101
PANAMA CITY    CLEAR     79  79 100 W3        30.02S
APPALACHICOLA  CLEAR     78  74  87 CALM      30.01S
$$



USA.gov is the U.S. government's official web portal to all federal, state and local government web resources and services.